• In Belarus
  • List of Countries
  • For 7 days
  • Water Temperature
  • Satellite Maps
  • Weather Map
  • Weather Widgets
  • user-avatar
    Login

    Hourly Weather Znamenskie Vyselki

    Today, 19 April, Thursday

    Time Temperature Precipitation Wind Pressure Humidity
    00:00 +5°C° 0.1 mm 5 mps 732 mmHg 85%
    01:00 +5°C° 0.1 mm 5 mps 731 mmHg 87%
    02:00 +5°C° 0 mm 5 mps 731 mmHg 88%
    03:00 +5°C° 0.5 mm 5 mps 730 mmHg 89%
    04:00 +3°C° 0.5 mm 5 mps 730 mmHg 89%
    05:00 +3°C° 0.5 mm 6 mps 729 mmHg 90%
    06:00 +4°C° 0.2 mm 6 mps 729 mmHg 89%
    07:00 +4°C° 0.2 mm 6 mps 729 mmHg 88%
    08:00 +4°C° 0 mm 7 mps 728 mmHg 86%
    09:00 +5°C° 0.4 mm 7 mps 728 mmHg 85%
    10:00 +5°C° 0.4 mm 7 mps 728 mmHg 84%
    11:00 +6°C° 0.4 mm 7 mps 728 mmHg 83%
    12:00 +7°C° 0.3 mm 8 mps 728 mmHg 77%
    13:00 +9°C° 0.3 mm 8 mps 728 mmHg 70%
    14:00 +10°C° 0.3 mm 8 mps 728 mmHg 64%
    15:00 +10°C° 0.2 mm 8 mps 728 mmHg 65%
    16:00 +9°C° 0.2 mm 7 mps 729 mmHg 65%
    17:00 +9°C° 0.2 mm 7 mps 729 mmHg 66%
    18:00 +9°C° 0.1 mm 7 mps 729 mmHg 70%
    19:00 +8°C° 0.1 mm 7 mps 730 mmHg 73%
    20:00 +6°C° 0.1 mm 7 mps 730 mmHg 77%
    21:00 +6°C° 0.1 mm 7 mps 731 mmHg 78%
    22:00 +6°C° 0.1 mm 7 mps 731 mmHg 78%
    23:00 +6°C° 0.1 mm 8 mps 731 mmHg 78%

    Tomorrow, 20 April, Friday

    Time Temperature Precipitation Wind Pressure Humidity
    00:00 +5°C° 0 mm 8 mps 732 mmHg 79%
    01:00 +5°C° 0 mm 8 mps 732 mmHg 79%
    02:00 +4°C° 0 mm 8 mps 732 mmHg 80%
    03:00 +4°C° 0 mm 7 mps 733 mmHg 81%
    04:00 +3°C° 0 mm 7 mps 733 mmHg 82%
    05:00 +3°C° 0 mm 7 mps 734 mmHg 83%
    06:00 +3°C° 0 mm 7 mps 734 mmHg 80%
    07:00 +4°C° 0 mm 8 mps 735 mmHg 77%
    08:00 +4°C° 0 mm 8 mps 736 mmHg 73%
    09:00 +5°C° 0 mm 8 mps 736 mmHg 70%
    10:00 +5°C° 0 mm 7 mps 736 mmHg 68%
    11:00 +6°C° 0 mm 7 mps 737 mmHg 65%
    12:00 +8°C° 0 mm 7 mps 737 mmHg 61%
    13:00 +9°C° 0 mm 7 mps 737 mmHg 57%
    14:00 +10°C° 0 mm 7 mps 738 mmHg 53%
    15:00 +10°C° 0 mm 6 mps 738 mmHg 54%
    16:00 +10°C° 0 mm 5 mps 738 mmHg 56%
    17:00 +10°C° 0 mm 5 mps 738 mmHg 57%
    18:00 +8°C° 0 mm 4 mps 738 mmHg 63%
    19:00 +8°C° 0 mm 3 mps 738 mmHg 69%
    20:00 +7°C° 0 mm 2 mps 739 mmHg 75%
    21:00 +6°C° 0 mm 2 mps 738 mmHg 78%
    22:00 +6°C° 0 mm 1 mps 738 mmHg 80%
    23:00 +6°C° 0 mm 1 mps 738 mmHg 82%

    Day after tomorrow, 21 April, Saturday

    Time Temperature Precipitation Wind Pressure Humidity
    00:00 +6°C° 0 mm 1 mps 738 mmHg 84%
    01:00 +4°C° 0 mm 2 mps 738 mmHg 85%
    02:00 +4°C° 0 mm 2 mps 737 mmHg 87%
    03:00 +4°C° 0 mm 2 mps 737 mmHg 88%
    04:00 +3°C° 0 mm 3 mps 736 mmHg 89%
    05:00 +3°C° 0 mm 4 mps 736 mmHg 90%
    06:00 +5°C° 0 mm 5 mps 735 mmHg 84%
    07:00 +5°C° 0 mm 6 mps 734 mmHg 78%
    08:00 +8°C° 0 mm 7 mps 733 mmHg 72%
    09:00 +10°C° 0 mm 8 mps 732 mmHg 67%
    10:00 +12°C° 0 mm 8 mps 731 mmHg 62%
    11:00 +13°C° 0 mm 9 mps 730 mmHg 58%
    12:00 +15°C° 0 mm 9 mps 729 mmHg 56%
    13:00 +16°C° 0 mm 10 mps 728 mmHg 54%
    14:00 +17°C° 0 mm 10 mps 727 mmHg 53%
    15:00 +16°C° 0.4 mm 9 mps 726 mmHg 57%
    16:00 +15°C° 0.4 mm 9 mps 725 mmHg 62%
    17:00 +15°C° 0.4 mm 8 mps 724 mmHg 66%
    18:00 +12°C° 0.7 mm 8 mps 724 mmHg 69%
    19:00 +11°C° 0.7 mm 8 mps 724 mmHg 72%
    20:00 +10°C° 0.7 mm 7 mps 725 mmHg 74%
    21:00 +8°C° 0 mm 7 mps 725 mmHg 74%
    22:00 +7°C° 0 mm 6 mps 725 mmHg 74%
    23:00 +4°C° 0 mm 6 mps 725 mmHg 74%

    22 April, Sunday

    Time Temperature Precipitation Wind Pressure Humidity
    00:00 +4°C° 0 mm 6 mps 725 mmHg 75%
    01:00 +4°C° 0 mm 7 mps 726 mmHg 76%
    02:00 +3°C° 0 mm 7 mps 726 mmHg 77%
    03:00 +3°C° 0 mm 7 mps 726 mmHg 78%
    04:00 +2°C° 0 mm 7 mps 726 mmHg 78%
    05:00 +2°C° 0 mm 7 mps 727 mmHg 79%
    06:00 +1°C° 0 mm 8 mps 727 mmHg 75%
    07:00 +2°C° 0 mm 8 mps 727 mmHg 71%
    08:00 +2°C° 0 mm 9 mps 728 mmHg 67%
    09:00 +4°C° 0 mm 8 mps 728 mmHg 63%
    10:00 +5°C° 0 mm 8 mps 728 mmHg 59%
    11:00 +6°C° 0 mm 8 mps 729 mmHg 55%
    12:00 +6°C° 0 mm 8 mps 729 mmHg 52%
    13:00 +7°C° 0 mm 8 mps 729 mmHg 49%
    14:00 +9°C° 0 mm 8 mps 729 mmHg 46%
    15:00 +8°C° 0 mm 7 mps 730 mmHg 47%
    16:00 +8°C° 0 mm 6 mps 730 mmHg 48%
    17:00 +8°C° 0 mm 6 mps 730 mmHg 49%
    18:00 +6°C° 0 mm 4 mps 730 mmHg 54%
    19:00 +5°C° 0 mm 3 mps 731 mmHg 60%
    20:00 +5°C° 0 mm 2 mps 731 mmHg 66%
    21:00 +4°C° 0 mm 2 mps 731 mmHg 67%
    22:00 +4°C° 0 mm 2 mps 732 mmHg 68%
    23:00 +4°C° 0 mm 2 mps 732 mmHg 69%

    23 April, Monday

    Time Temperature Precipitation Wind Pressure Humidity
    00:00 +2°C° 0.1 mm 3 mps 732 mmHg 69%
    01:00 +2°C° 0.1 mm 3 mps 732 mmHg 69%
    02:00 +1°C° 0.1 mm 3 mps 732 mmHg 69%
    03:00 +1°C° 0 mm 3 mps 733 mmHg 69%
    04:00 0°C° 0 mm 3 mps 733 mmHg 69%
    05:00 0°C° 0 mm 3 mps 733 mmHg 69%
    06:00 +1°C° 0 mm 3 mps 734 mmHg 63%
    07:00 +1°C° 0 mm 3 mps 734 mmHg 57%
    08:00 +1°C° 0 mm 4 mps 735 mmHg 51%
    09:00 +3°C° 0 mm 4 mps 735 mmHg 47%
    10:00 +4°C° 0 mm 4 mps 735 mmHg 44%
    11:00 +5°C° 0 mm 4 mps 735 mmHg 40%
    12:00 +5°C° 0 mm 4 mps 735 mmHg 39%
    13:00 +6°C° 0 mm 4 mps 735 mmHg 38%
    14:00 +6°C° 0 mm 4 mps 735 mmHg 37%
    15:00 +7°C° 0 mm 3 mps 735 mmHg 38%
    16:00 +7°C° 0 mm 3 mps 735 mmHg 39%
    17:00 +7°C° 0 mm 3 mps 735 mmHg 40%
    18:00 +6°C° 0 mm 2 mps 736 mmHg 44%
    19:00 +6°C° 0 mm 1 mps 736 mmHg 47%
    20:00 +5°C° 0 mm 1 mps 736 mmHg 51%
    21:00 +4°C° 0 mm 1 mps 736 mmHg 53%
    22:00 +4°C° 0 mm 1 mps 736 mmHg 54%
    23:00 +3°C° 0 mm 1 mps 736 mmHg 56%

    24 April, Tuesday

    Time Temperature Precipitation Wind Pressure Humidity
    00:00 +3°C° 0 mm 1 mps 736 mmHg 57%
    01:00 +3°C° 0 mm 1 mps 736 mmHg 59%
    02:00 +1°C° 0 mm 2 mps 736 mmHg 61%
    03:00 +1°C° 0 mm 2 mps 736 mmHg 62%
    04:00 +1°C° 0 mm 2 mps 736 mmHg 64%
    05:00 +1°C° 0 mm 2 mps 736 mmHg 65%
    06:00 +3°C° 0 mm 2 mps 736 mmHg 61%
    07:00 +4°C° 0 mm 3 mps 736 mmHg 56%
    08:00 +7°C° 0 mm 3 mps 736 mmHg 51%
    09:00 +7°C° 0 mm 4 mps 735 mmHg 50%
    10:00 +8°C° 0 mm 4 mps 735 mmHg 49%
    11:00 +9°C° 0 mm 5 mps 734 mmHg 48%
    12:00 +9°C° 0.2 mm 5 mps 734 mmHg 53%
    13:00 +9°C° 0.2 mm 5 mps 733 mmHg 58%
    14:00 +8°C° 0.2 mm 5 mps 733 mmHg 63%
    15:00 +8°C° 0.5 mm 5 mps 732 mmHg 69%
    16:00 +7°C° 0.5 mm 5 mps 731 mmHg 74%
    17:00 +7°C° 0.5 mm 5 mps 731 mmHg 80%
    18:00 +7°C° 0.4 mm 5 mps 730 mmHg 83%
    19:00 +6°C° 0.4 mm 5 mps 730 mmHg 86%
    20:00 +6°C° 0.4 mm 5 mps 730 mmHg 89%
    21:00 +6°C° 0.4 mm 4 mps 729 mmHg 90%
    22:00 +6°C° 0.4 mm 4 mps 729 mmHg 92%
    23:00 +7°C° 0.4 mm 3 mps 729 mmHg 93%
    Show more